Powrót do katalogu

AETHER-2

AktywnyŁącznośćSSO
NORAD 58299·PAYLOAD·🇨🇦 Canada

Wystrzelony Nov 11, 2023 z Vandenberg Space Force Base

Loading…

Następne Przeloty (najbliższe 24 godziny)

TLE

ŚwieżeSource: Space-Track

Epoka: Sep 14, 2026, 04:19 UTC

1 58299U 23174AV  26257.18007400  .00006688  00000-0  19630-3 0  9992
2 58299  97.3867 340.6275 0006787 176.5969 183.5322 15.35469979158885

Śledź AETHER-2 w czasie rzeczywistym z AllMySat

Download on the App Store